contact:dominique.lefevre@mio.osupytheas.fr, maurice.libes@osupytheas.fr, didier.mallarino@osupytheas.fr
Project:EMSO http://www.emso-fr.org/EMSO-France
Depth: 2436.0 m
Title:EMSO Ligure Ouest : Data MII capteur MICROCAT
DateTime_Computer,Latitude,Longitude,Temperature,Conductivity,Pressure,DateTime_Instrument
DateTime_Computer,Latitude,Longitude,degC,S m-1,dbar,DateTime_Instrument
2021-12-19T00:00:33Z,42.805,6.029,13.3003,4.60027,2470.18,2021-12-19T02:02:02Z
2021-12-19T00:03:36Z,42.805,6.029,13.3011,4.60033,2470.18,2021-12-19T02:05:05Z
2021-12-19T00:06:40Z,42.805,6.029,13.3011,4.60050,2470.203,2021-12-19T02:08:08Z
2021-12-19T00:09:43Z,42.805,6.029,13.3006,4.60031,2470.156,2021-12-19T02:11:11Z
2021-12-19T00:12:46Z,42.805,6.029,13.3009,4.60033,2470.133,2021-12-19T02:14:15Z
2021-12-19T00:15:49Z,42.805,6.029,13.3000,4.60026,2470.171,2021-12-19T02:17:18Z
2021-12-19T00:18:52Z,42.805,6.029,13.3009,4.60036,2470.156,2021-12-19T02:20:21Z
2021-12-19T00:21:55Z,42.805,6.029,13.3010,4.60032,2470.18,2021-12-19T02:23:24Z
2021-12-19T00:24:58Z,42.805,6.029,13.3006,4.60029,2470.156,2021-12-19T02:26:27Z
2021-12-19T00:28:01Z,42.805,6.029,13.2999,4.60021,2470.133,2021-12-19T02:29:30Z
2021-12-19T00:31:05Z,42.805,6.029,13.3003,4.60029,2470.156,2021-12-19T02:32:33Z
2021-12-19T00:34:08Z,42.805,6.029,13.3004,4.60029,2470.156,2021-12-19T02:35:36Z
2021-12-19T00:37:11Z,42.805,6.029,13.3004,4.60029,2470.147,2021-12-19T02:38:40Z
2021-12-19T00:40:14Z,42.805,6.029,13.3015,4.60031,2470.147,2021-12-19T02:41:43Z
2021-12-19T00:43:17Z,42.805,6.029,13.3007,4.60027,2470.171,2021-12-19T02:44:46Z
2021-12-19T00:46:20Z,42.805,6.029,13.3002,4.60027,2470.133,2021-12-19T02:47:49Z
2021-12-19T00:49:23Z,42.805,6.029,13.3004,4.60024,2470.171,2021-12-19T02:50:52Z
2021-12-19T00:52:26Z,42.805,6.029,13.3009,4.60033,2470.156,2021-12-19T02:53:55Z
2021-12-19T00:55:30Z,42.805,6.029,13.3009,4.60026,2470.171,2021-12-19T02:56:58Z
2021-12-19T00:58:33Z,42.805,6.029,13.3005,4.60027,2470.217,2021-12-19T03:00:01Z
2021-12-19T01:01:36Z,42.805,6.029,13.3009,4.60032,2470.133,2021-12-19T03:03:05Z
2021-12-19T01:04:39Z,42.805,6.029,13.3000,4.60027,2470.11,2021-12-19T03:06:08Z
2021-12-19T01:07:42Z,42.805,6.029,13.3006,4.60026,2470.156,2021-12-19T03:09:11Z
2021-12-19T01:10:45Z,42.805,6.029,13.3003,4.60027,2470.147,2021-12-19T03:12:14Z
2021-12-19T01:13:48Z,42.805,6.029,13.3006,4.60027,2470.147,2021-12-19T03:15:17Z
2021-12-19T01:16:51Z,42.805,6.029,13.3006,4.60026,2470.133,2021-12-19T03:18:20Z
2021-12-19T01:19:55Z,42.805,6.029,13.3004,4.60026,2470.156,2021-12-19T03:21:23Z
2021-12-19T01:22:58Z,42.805,6.029,13.3004,4.60025,2470.171,2021-12-19T03:24:26Z
2021-12-19T01:26:01Z,42.805,6.029,13.3004,4.60026,2470.133,2021-12-19T03:27:30Z
2021-12-19T01:29:04Z,42.805,6.029,13.3008,4.60026,2470.133,2021-12-19T03:30:33Z
2021-12-19T01:32:07Z,42.805,6.029,13.3000,4.60025,2470.147,2021-12-19T03:33:36Z
2021-12-19T01:35:10Z,42.805,6.029,13.3012,4.60028,2470.156,2021-12-19T03:36:39Z
2021-12-19T01:38:13Z,42.805,6.029,13.3004,4.60032,2470.133,2021-12-19T03:39:42Z
2021-12-19T01:41:16Z,42.805,6.029,13.3006,4.60026,2470.147,2021-12-19T03:42:45Z
2021-12-19T01:44:20Z,42.805,6.029,13.3008,4.60023,2470.18,2021-12-19T03:45:48Z
2021-12-19T01:47:23Z,42.805,6.029,13.3008,4.60028,2470.18,2021-12-19T03:48:51Z
2021-12-19T01:50:26Z,42.805,6.029,13.3010,4.60029,2470.147,2021-12-19T03:51:55Z
2021-12-19T01:53:29Z,42.805,6.029,13.3017,4.60029,2470.171,2021-12-19T03:54:58Z
2021-12-19T01:56:32Z,42.805,6.029,13.3009,4.60031,2470.156,2021-12-19T03:58:01Z
2021-12-19T01:59:35Z,42.805,6.029,13.3009,4.60030,2470.133,2021-12-19T04:01:04Z
2021-12-19T02:02:38Z,42.805,6.029,13.3014,4.60033,2470.133,2021-12-19T04:04:07Z
2021-12-19T02:05:41Z,42.805,6.029,13.3009,4.60032,2470.18,2021-12-19T04:07:10Z
2021-12-19T02:08:45Z,42.805,6.029,13.3009,4.60027,2470.171,2021-12-19T04:10:13Z
2021-12-19T02:11:48Z,42.805,6.029,13.3005,4.60028,2470.18,2021-12-19T04:13:16Z
2021-12-19T02:14:51Z,42.805,6.029,13.3008,4.60029,2470.194,2021-12-19T04:16:20Z
2021-12-19T02:17:54Z,42.805,6.029,13.3009,4.60023,2470.133,2021-12-19T04:19:23Z
2021-12-19T02:20:57Z,42.805,6.029,13.3006,4.60029,2470.11,2021-12-19T04:22:26Z
2021-12-19T02:24:00Z,42.805,6.029,13.3011,4.60028,2470.156,2021-12-19T04:25:29Z
2021-12-19T02:27:03Z,42.805,6.029,13.3013,4.60031,2470.156,2021-12-19T04:28:32Z
2021-12-19T02:30:06Z,42.805,6.029,13.3010,4.60030,2470.133,2021-12-19T04:31:35Z
2021-12-19T02:33:10Z,42.805,6.029,13.3007,4.60027,2470.147,2021-12-19T04:34:38Z
2021-12-19T02:36:13Z,42.805,6.029,13.3010,4.60029,2470.124,2021-12-19T04:37:41Z
2021-12-19T02:39:16Z,42.805,6.029,13.3008,4.60026,2470.18,2021-12-19T04:40:44Z
2021-12-19T02:42:19Z,42.805,6.029,13.3005,4.60024,2470.171,2021-12-19T04:43:48Z
2021-12-19T02:45:22Z,42.805,6.029,13.3009,4.60029,2470.156,2021-12-19T04:46:51Z
2021-12-19T02:48:25Z,42.805,6.029,13.3011,4.60028,2470.156,2021-12-19T04:49:54Z
2021-12-19T02:51:28Z,42.805,6.029,13.3008,4.60031,2470.124,2021-12-19T04:52:57Z
2021-12-19T02:54:31Z,42.805,6.029,13.3007,4.60029,2470.156,2021-12-19T04:56:00Z
2021-12-19T02:57:35Z,42.805,6.029,13.3009,4.60031,2470.194,2021-12-19T04:59:03Z
2021-12-19T03:00:38Z,42.805,6.029,13.3010,4.60029,2470.18,2021-12-19T05:02:06Z
2021-12-19T03:03:41Z,42.805,6.029,13.3011,4.60025,2470.133,2021-12-19T05:05:09Z
2021-12-19T03:06:44Z,42.805,6.029,13.3011,4.60029,2470.18,2021-12-19T05:08:13Z
2021-12-19T03:09:47Z,42.805,6.029,13.3005,4.60029,2470.217,2021-12-19T05:11:16Z
2021-12-19T03:12:50Z,42.805,6.029,13.3006,4.60028,2470.217,2021-12-19T05:14:19Z
2021-12-19T03:15:53Z,42.805,6.029,13.3006,4.60031,2470.18,2021-12-19T05:17:22Z
2021-12-19T03:18:56Z,42.805,6.029,13.3009,4.60029,2470.189,2021-12-19T05:20:25Z
2021-12-19T03:21:59Z,42.805,6.029,13.3009,4.60030,2470.203,2021-12-19T05:23:28Z
2021-12-19T03:25:03Z,42.805,6.029,13.3009,4.60031,2470.203,2021-12-19T05:26:31Z
2021-12-19T03:28:06Z,42.805,6.029,13.3006,4.60027,2470.194,2021-12-19T05:29:34Z
2021-12-19T03:31:09Z,42.805,6.029,13.3009,4.60034,2470.203,2021-12-19T05:32:38Z
2021-12-19T03:34:12Z,42.805,6.029,13.3008,4.60028,2470.194,2021-12-19T05:35:41Z
2021-12-19T03:37:15Z,42.805,6.029,13.3009,4.60032,2470.18,2021-12-19T05:38:44Z
2021-12-19T03:40:18Z,42.805,6.029,13.3006,4.60031,2470.203,2021-12-19T05:41:47Z
2021-12-19T03:43:21Z,42.805,6.029,13.3011,4.60025,2470.203,2021-12-19T05:44:50Z
2021-12-19T03:46:25Z,42.805,6.029,13.3011,4.60030,2470.227,2021-12-19T05:47:53Z
2021-12-19T03:49:28Z,42.805,6.029,13.3008,4.60031,2470.203,2021-12-19T05:50:56Z
2021-12-19T03:52:31Z,42.805,6.029,13.3012,4.60031,2470.203,2021-12-19T05:53:59Z
2021-12-19T03:55:34Z,42.805,6.029,13.3014,4.60029,2470.18,2021-12-19T05:57:03Z
2021-12-19T03:58:37Z,42.805,6.029,13.3009,4.60030,2470.227,2021-12-19T06:00:06Z
2021-12-19T04:01:40Z,42.805,6.029,13.3008,4.60027,2470.25,2021-12-19T06:03:09Z
2021-12-19T04:04:43Z,42.805,6.029,13.3010,4.60026,2470.264,2021-12-19T06:06:12Z
2021-12-19T04:07:46Z,42.805,6.029,13.3009,4.60029,2470.24,2021-12-19T06:09:15Z
2021-12-19T04:10:49Z,42.805,6.029,13.3012,4.60029,2470.24,2021-12-19T06:12:18Z
2021-12-19T04:13:53Z,42.805,6.029,13.3006,4.60027,2470.25,2021-12-19T06:15:21Z
2021-12-19T04:16:56Z,42.805,6.029,13.3012,4.60027,2470.203,2021-12-19T06:18:24Z
2021-12-19T04:19:59Z,42.805,6.029,13.3008,4.60026,2470.264,2021-12-19T06:21:28Z
2021-12-19T04:23:02Z,42.805,6.029,13.3009,4.60029,2470.24,2021-12-19T06:24:31Z
2021-12-19T04:26:05Z,42.805,6.029,13.3006,4.60031,2470.24,2021-12-19T06:27:34Z
2021-12-19T04:29:08Z,42.805,6.029,13.3009,4.60027,2470.25,2021-12-19T06:30:37Z
2021-12-19T04:32:11Z,42.805,6.029,13.3006,4.60026,2470.25,2021-12-19T06:33:40Z
2021-12-19T04:35:14Z,42.805,6.029,13.3008,4.60024,2470.227,2021-12-19T06:36:43Z
2021-12-19T04:38:18Z,42.805,6.029,13.3007,4.60031,2470.25,2021-12-19T06:39:46Z
2021-12-19T04:41:21Z,42.805,6.029,13.3008,4.60028,2470.25,2021-12-19T06:42:49Z
2021-12-19T04:44:24Z,42.805,6.029,13.3008,4.60029,2470.25,2021-12-19T06:45:53Z
2021-12-19T04:47:27Z,42.805,6.029,13.3011,4.60034,2470.25,2021-12-19T06:48:56Z
2021-12-19T04:50:30Z,42.805,6.029,13.3004,4.60027,2470.264,2021-12-19T06:51:59Z
2021-12-19T04:53:33Z,42.805,6.029,13.3009,4.60033,2470.264,2021-12-19T06:55:02Z
2021-12-19T04:56:36Z,42.805,6.029,13.3009,4.60033,2470.32,2021-12-19T06:58:05Z
2021-12-19T04:59:39Z,42.805,6.029,13.3011,4.60039,2470.25,2021-12-19T07:01:08Z
2021-12-19T05:02:43Z,42.805,6.029,13.3011,4.60031,2470.273,2021-12-19T07:04:11Z
2021-12-19T05:05:46Z,42.805,6.029,13.3008,4.60029,2470.287,2021-12-19T07:07:14Z
2021-12-19T05:08:49Z,42.805,6.029,13.3006,4.60030,2470.31,2021-12-19T07:10:18Z
2021-12-19T05:11:52Z,42.805,6.029,13.3006,4.60027,2470.297,2021-12-19T07:13:21Z
2021-12-19T05:14:55Z,42.805,6.029,13.3011,4.60031,2470.273,2021-12-19T07:16:24Z
2021-12-19T05:17:58Z,42.805,6.029,13.3008,4.60028,2470.273,2021-12-19T07:19:27Z
2021-12-19T05:21:01Z,42.805,6.029,13.3006,4.60029,2470.287,2021-12-19T07:22:30Z
2021-12-19T05:24:04Z,42.805,6.029,13.3017,4.60029,2470.297,2021-12-19T07:25:33Z
2021-12-19T05:27:08Z,42.805,6.029,13.3009,4.60032,2470.31,2021-12-19T07:28:36Z
2021-12-19T05:30:11Z,42.805,6.029,13.3009,4.60029,2470.297,2021-12-19T07:31:39Z
2021-12-19T05:33:14Z,42.805,6.029,13.3010,4.60031,2470.32,2021-12-19T07:34:43Z
2021-12-19T05:36:17Z,42.805,6.029,13.3009,4.60028,2470.343,2021-12-19T07:37:46Z
2021-12-19T05:39:20Z,42.805,6.029,13.3009,4.60033,2470.31,2021-12-19T07:40:49Z
2021-12-19T05:42:23Z,42.805,6.029,13.3010,4.60031,2470.31,2021-12-19T07:43:52Z
2021-12-19T05:45:26Z,42.805,6.029,13.3007,4.60029,2470.334,2021-12-19T07:46:55Z
2021-12-19T05:48:29Z,42.805,6.029,13.3006,4.60027,2470.32,2021-12-19T07:49:58Z
2021-12-19T05:51:33Z,42.805,6.029,13.3009,4.60031,2470.297,2021-12-19T07:53:01Z
2021-12-19T05:54:36Z,42.805,6.029,13.3010,4.60029,2470.32,2021-12-19T07:56:04Z
2021-12-19T05:57:39Z,42.805,6.029,13.3011,4.60042,2470.357,2021-12-19T07:59:08Z
2021-12-19T06:00:42Z,42.805,6.029,13.3011,4.60033,2470.32,2021-12-19T08:02:11Z
2021-12-19T06:03:45Z,42.805,6.029,13.3008,4.60046,2470.334,2021-12-19T08:05:14Z
2021-12-19T06:06:48Z,42.805,6.029,13.3006,4.60029,2470.343,2021-12-19T08:08:17Z
2021-12-19T06:09:51Z,42.805,6.029,13.3002,4.60029,2470.297,2021-12-19T08:11:20Z
2021-12-19T06:12:54Z,42.805,6.029,13.3007,4.60027,2470.334,2021-12-19T08:14:23Z
2021-12-19T06:15:58Z,42.805,6.029,13.3008,4.60031,2470.334,2021-12-19T08:17:26Z
2021-12-19T06:19:01Z,42.805,6.029,13.3009,4.60027,2470.32,2021-12-19T08:20:29Z
2021-12-19T06:22:04Z,42.805,6.029,13.3009,4.60029,2470.31,2021-12-19T08:23:33Z
2021-12-19T06:25:07Z,42.805,6.029,13.3006,4.60029,2470.343,2021-12-19T08:26:36Z
2021-12-19T06:28:10Z,42.805,6.029,13.3009,4.60029,2470.32,2021-12-19T08:29:39Z
2021-12-19T06:31:13Z,42.805,6.029,13.3010,4.60033,2470.32,2021-12-19T08:32:42Z
2021-12-19T06:34:16Z,42.805,6.029,13.3009,4.60027,2470.343,2021-12-19T08:35:45Z
2021-12-19T06:37:19Z,42.805,6.029,13.3019,4.60031,2470.343,2021-12-19T08:38:48Z
2021-12-19T06:40:23Z,42.805,6.029,13.3011,4.60032,2470.32,2021-12-19T08:41:51Z
2021-12-19T06:43:26Z,42.805,6.029,13.3012,4.60028,2470.343,2021-12-19T08:44:54Z
2021-12-19T06:46:29Z,42.805,6.029,13.3008,4.60033,2470.357,2021-12-19T08:47:58Z
2021-12-19T06:49:32Z,42.805,6.029,13.3007,4.60031,2470.31,2021-12-19T08:51:01Z
2021-12-19T06:52:35Z,42.805,6.029,13.3005,4.60025,2470.38,2021-12-19T08:54:04Z
2021-12-19T06:55:38Z,42.805,6.029,13.3012,4.60032,2470.343,2021-12-19T08:57:07Z
2021-12-19T06:58:41Z,42.805,6.029,13.3014,4.60034,2470.357,2021-12-19T09:00:10Z
2021-12-19T07:01:44Z,42.805,6.029,13.3009,4.60033,2470.366,2021-12-19T09:03:13Z
2021-12-19T07:04:47Z,42.805,6.029,13.3014,4.60031,2470.343,2021-12-19T09:06:16Z
2021-12-19T07:07:51Z,42.805,6.029,13.3013,4.60032,2470.334,2021-12-19T09:09:19Z
2021-12-19T07:10:54Z,42.805,6.029,13.3011,4.60033,2470.366,2021-12-19T09:12:23Z
2021-12-19T07:13:57Z,42.805,6.029,13.3010,4.60034,2470.343,2021-12-19T09:15:26Z
2021-12-19T07:17:00Z,42.805,6.029,13.3009,4.60036,2470.343,2021-12-19T09:18:29Z
2021-12-19T07:20:03Z,42.805,6.029,13.3009,4.60029,2470.38,2021-12-19T09:21:32Z
2021-12-19T07:23:06Z,42.805,6.029,13.3006,4.60031,2470.343,2021-12-19T09:24:35Z
2021-12-19T07:26:09Z,42.805,6.029,13.3011,4.60029,2470.32,2021-12-19T09:27:38Z
2021-12-19T07:29:12Z,42.805,6.029,13.3011,4.60033,2470.343,2021-12-19T09:30:41Z
2021-12-19T07:32:16Z,42.805,6.029,13.3012,4.60033,2470.343,2021-12-19T09:33:44Z
2021-12-19T07:35:19Z,42.805,6.029,13.3011,4.60037,2470.357,2021-12-19T09:36:48Z
2021-12-19T07:38:22Z,42.805,6.029,13.3004,4.60033,2470.343,2021-12-19T09:39:51Z
2021-12-19T07:41:25Z,42.805,6.029,13.3006,4.60038,2470.357,2021-12-19T09:42:54Z
2021-12-19T07:44:28Z,42.805,6.029,13.3009,4.60033,2470.366,2021-12-19T09:45:57Z
2021-12-19T07:47:31Z,42.805,6.029,13.3010,4.60034,2470.357,2021-12-19T09:49:00Z
2021-12-19T07:50:34Z,42.805,6.029,13.3014,4.60031,2470.357,2021-12-19T09:52:03Z
2021-12-19T07:53:37Z,42.805,6.029,13.3009,4.60028,2470.343,2021-12-19T09:55:06Z
2021-12-19T07:56:41Z,42.805,6.029,13.3007,4.60032,2470.357,2021-12-19T09:58:09Z
2021-12-19T07:59:44Z,42.805,6.029,13.3007,4.60033,2470.343,2021-12-19T10:01:13Z
2021-12-19T08:02:47Z,42.805,6.029,13.3009,4.60029,2470.343,2021-12-19T10:04:16Z
2021-12-19T08:05:50Z,42.805,6.029,13.3006,4.60028,2470.38,2021-12-19T10:07:19Z
2021-12-19T08:08:53Z,42.805,6.029,13.3014,4.60035,2470.357,2021-12-19T10:10:22Z
2021-12-19T08:11:56Z,42.805,6.029,13.3009,4.60033,2470.334,2021-12-19T10:13:25Z
2021-12-19T08:14:59Z,42.805,6.029,13.3013,4.60032,2470.366,2021-12-19T10:16:28Z
2021-12-19T08:18:02Z,42.805,6.029,13.3015,4.60039,2470.343,2021-12-19T10:19:31Z
2021-12-19T08:21:06Z,42.805,6.029,13.3006,4.60032,2470.343,2021-12-19T10:22:34Z
2021-12-19T08:24:09Z,42.805,6.029,13.3009,4.60032,2470.357,2021-12-19T10:25:38Z
2021-12-19T08:27:12Z,42.805,6.029,13.3019,4.60033,2470.366,2021-12-19T10:28:41Z
2021-12-19T08:30:15Z,42.805,6.029,13.3015,4.60035,2470.366,2021-12-19T10:31:44Z
2021-12-19T08:33:18Z,42.805,6.029,13.3010,4.60031,2470.366,2021-12-19T10:34:47Z
2021-12-19T08:36:21Z,42.805,6.029,13.3011,4.60031,2470.357,2021-12-19T10:37:50Z
2021-12-19T08:39:24Z,42.805,6.029,13.3007,4.60033,2470.366,2021-12-19T10:40:53Z
2021-12-19T08:42:27Z,42.805,6.029,13.3015,4.60029,2470.343,2021-12-19T10:43:56Z
2021-12-19T08:45:31Z,42.805,6.029,13.3012,4.60038,2470.366,2021-12-19T10:46:59Z
2021-12-19T08:48:34Z,42.805,6.029,13.3009,4.60033,2470.357,2021-12-19T10:50:03Z
2021-12-19T08:51:37Z,42.805,6.029,13.3004,4.60029,2470.343,2021-12-19T10:53:06Z
2021-12-19T08:54:40Z,42.805,6.029,13.3009,4.60037,2470.343,2021-12-19T10:56:09Z
2021-12-19T08:57:43Z,42.805,6.029,13.3009,4.60033,2470.343,2021-12-19T10:59:12Z
2021-12-19T09:00:46Z,42.805,6.029,13.3007,4.60028,2470.32,2021-12-19T11:02:15Z
2021-12-19T09:03:49Z,42.805,6.029,13.3011,4.60031,2470.343,2021-12-19T11:05:18Z
2021-12-19T09:06:53Z,42.805,6.029,13.3010,4.60029,2470.343,2021-12-19T11:08:21Z
2021-12-19T09:09:56Z,42.805,6.029,13.3007,4.60029,2470.357,2021-12-19T11:11:24Z
2021-12-19T09:12:59Z,42.805,6.029,13.3009,4.60029,2470.32,2021-12-19T11:14:28Z
2021-12-19T09:16:02Z,42.805,6.029,13.3009,4.60031,2470.343,2021-12-19T11:17:31Z
2021-12-19T09:19:05Z,42.805,6.029,13.3013,4.60032,2470.343,2021-12-19T11:20:34Z
2021-12-19T09:22:08Z,42.805,6.029,13.3006,4.60031,2470.32,2021-12-19T11:23:37Z
2021-12-19T09:25:11Z,42.805,6.029,13.3007,4.60029,2470.32,2021-12-19T11:26:40Z
2021-12-19T09:28:14Z,42.805,6.029,13.3011,4.60032,2470.32,2021-12-19T11:29:43Z
2021-12-19T09:31:18Z,42.805,6.029,13.3011,4.60035,2470.273,2021-12-19T11:32:46Z
2021-12-19T09:34:21Z,42.805,6.029,13.3006,4.60027,2470.32,2021-12-19T11:35:49Z
2021-12-19T09:37:24Z,42.805,6.029,13.3009,4.60030,2470.297,2021-12-19T11:38:53Z
2021-12-19T09:40:27Z,42.805,6.029,13.3006,4.60035,2470.297,2021-12-19T11:41:56Z
2021-12-19T09:43:30Z,42.805,6.029,13.3007,4.60029,2470.32,2021-12-19T11:44:59Z
2021-12-19T09:46:33Z,42.805,6.029,13.3008,4.60029,2470.357,2021-12-19T11:48:02Z
2021-12-19T09:49:36Z,42.805,6.029,13.3010,4.60036,2470.334,2021-12-19T11:51:05Z
2021-12-19T09:52:39Z,42.805,6.029,13.3015,4.60028,2470.297,2021-12-19T11:54:08Z
2021-12-19T09:55:43Z,42.805,6.029,13.3007,4.60033,2470.334,2021-12-19T11:57:11Z
2021-12-19T09:58:46Z,42.805,6.029,13.3006,4.60031,2470.32,2021-12-19T12:00:14Z
2021-12-19T10:01:49Z,42.805,6.029,13.3008,4.60033,2470.32,2021-12-19T12:03:18Z
2021-12-19T10:04:52Z,42.805,6.029,13.3009,4.60031,2470.31,2021-12-19T12:06:21Z
2021-12-19T10:07:55Z,42.805,6.029,13.3019,4.60033,2470.32,2021-12-19T12:09:24Z
2021-12-19T10:10:58Z,42.805,6.029,13.3000,4.60024,2470.334,2021-12-19T12:12:27Z
2021-12-19T10:14:01Z,42.805,6.029,13.3009,4.60029,2470.31,2021-12-19T12:15:30Z
2021-12-19T10:17:04Z,42.805,6.029,13.3005,4.60029,2470.297,2021-12-19T12:18:33Z
2021-12-19T10:20:08Z,42.805,6.029,13.3009,4.60029,2470.32,2021-12-19T12:21:36Z
2021-12-19T10:23:11Z,42.805,6.029,13.3014,4.60031,2470.297,2021-12-19T12:24:39Z
2021-12-19T10:26:14Z,42.805,6.029,13.3011,4.60036,2470.297,2021-12-19T12:27:43Z
2021-12-19T10:29:17Z,42.805,6.029,13.3011,4.60031,2470.31,2021-12-19T12:30:46Z
2021-12-19T10:32:20Z,42.805,6.029,13.3006,4.60031,2470.297,2021-12-19T12:33:49Z
2021-12-19T10:35:23Z,42.805,6.029,13.3015,4.60033,2470.25,2021-12-19T12:36:52Z
2021-12-19T10:38:26Z,42.805,6.029,13.3017,4.60037,2470.273,2021-12-19T12:39:55Z
2021-12-19T10:41:30Z,42.805,6.029,13.3019,4.60033,2470.273,2021-12-19T12:42:58Z
2021-12-19T10:44:33Z,42.805,6.029,13.3014,4.60035,2470.273,2021-12-19T12:46:01Z
2021-12-19T10:47:36Z,42.805,6.029,13.3013,4.60033,2470.25,2021-12-19T12:49:05Z
2021-12-19T10:50:39Z,42.805,6.029,13.3013,4.60033,2470.297,2021-12-19T12:52:08Z
2021-12-19T10:53:42Z,42.805,6.029,13.3006,4.60031,2470.287,2021-12-19T12:55:11Z
2021-12-19T10:56:45Z,42.805,6.029,13.3005,4.60031,2470.25,2021-12-19T12:58:14Z
2021-12-19T10:59:48Z,42.805,6.029,13.3014,4.60029,2470.287,2021-12-19T13:01:17Z
2021-12-19T11:02:52Z,42.805,6.029,13.3001,4.60028,2470.264,2021-12-19T13:04:20Z
2021-12-19T11:05:55Z,42.805,6.029,13.3011,4.60031,2470.273,2021-12-19T13:07:24Z
2021-12-19T11:08:58Z,42.805,6.029,13.3009,4.60026,2470.287,2021-12-19T13:10:27Z
2021-12-19T11:12:01Z,42.805,6.029,13.3009,4.60036,2470.25,2021-12-19T13:13:30Z
2021-12-19T11:15:04Z,42.805,6.029,13.3013,4.60033,2470.25,2021-12-19T13:16:33Z
2021-12-19T11:18:07Z,42.805,6.029,13.3009,4.60028,2470.287,2021-12-19T13:19:36Z
2021-12-19T11:21:10Z,42.805,6.029,13.3011,4.60031,2470.273,2021-12-19T13:22:39Z
2021-12-19T11:24:13Z,42.805,6.029,13.3011,4.60031,2470.24,2021-12-19T13:25:42Z
2021-12-19T11:27:17Z,42.805,6.029,13.3009,4.60029,2470.25,2021-12-19T13:28:45Z
2021-12-19T11:30:20Z,42.805,6.029,13.3011,4.60029,2470.25,2021-12-19T13:31:49Z
2021-12-19T11:33:23Z,42.805,6.029,13.3004,4.60028,2470.264,2021-12-19T13:34:52Z
2021-12-19T11:36:26Z,42.805,6.029,13.3006,4.60036,2470.25,2021-12-19T13:37:55Z
2021-12-19T11:39:29Z,42.805,6.029,13.3014,4.60029,2470.264,2021-12-19T13:40:58Z
2021-12-19T11:42:32Z,42.805,6.029,13.3014,4.60033,2470.25,2021-12-19T13:44:01Z
2021-12-19T11:45:35Z,42.805,6.029,13.3011,4.60032,2470.273,2021-12-19T13:47:04Z
2021-12-19T11:48:39Z,42.805,6.029,13.3009,4.60029,2470.227,2021-12-19T13:50:07Z
2021-12-19T11:51:42Z,42.805,6.029,13.3008,4.60030,2470.24,2021-12-19T13:53:10Z
2021-12-19T11:54:45Z,42.805,6.029,13.3007,4.60029,2470.227,2021-12-19T13:56:14Z
2021-12-19T11:57:48Z,42.805,6.029,13.3002,4.60027,2470.24,2021-12-19T13:59:17Z
2021-12-19T12:00:51Z,42.805,6.029,13.3011,4.60046,2470.25,2021-12-19T14:02:20Z
2021-12-19T12:03:54Z,42.805,6.029,13.3006,4.60029,2470.25,2021-12-19T14:05:23Z
2021-12-19T12:06:57Z,42.805,6.029,13.3006,4.60032,2470.264,2021-12-19T14:08:26Z
2021-12-19T12:10:00Z,42.805,6.029,13.3007,4.60028,2470.227,2021-12-19T14:11:29Z
2021-12-19T12:13:04Z,42.805,6.029,13.3012,4.60026,2470.203,2021-12-19T14:14:32Z
2021-12-19T12:16:07Z,42.805,6.029,13.3003,4.60025,2470.203,2021-12-19T14:17:35Z
2021-12-19T12:19:10Z,42.805,6.029,13.3004,4.60033,2470.24,2021-12-19T14:20:39Z
2021-12-19T12:22:13Z,42.805,6.029,13.3005,4.60029,2470.217,2021-12-19T14:23:42Z
2021-12-19T12:25:16Z,42.805,6.029,13.3006,4.60028,2470.227,2021-12-19T14:26:45Z
2021-12-19T12:28:19Z,42.805,6.029,13.3009,4.60033,2470.24,2021-12-19T14:29:48Z
2021-12-19T12:31:22Z,42.805,6.029,13.3006,4.60034,2470.203,2021-12-19T14:32:51Z
2021-12-19T12:34:25Z,42.805,6.029,13.3007,4.60025,2470.24,2021-12-19T14:35:54Z
2021-12-19T12:37:29Z,42.805,6.029,13.3007,4.60029,2470.203,2021-12-19T14:38:57Z
2021-12-19T12:40:32Z,42.805,6.029,13.3009,4.60038,2470.194,2021-12-19T14:42:00Z
2021-12-19T12:43:35Z,42.805,6.029,13.3006,4.60033,2470.18,2021-12-19T14:45:04Z
2021-12-19T12:46:38Z,42.805,6.029,13.3007,4.60029,2470.203,2021-12-19T14:48:07Z
2021-12-19T12:49:41Z,42.805,6.029,13.3010,4.60028,2470.194,2021-12-19T14:51:10Z
2021-12-19T12:52:44Z,42.805,6.029,13.3005,4.60031,2470.18,2021-12-19T14:54:13Z
2021-12-19T12:55:47Z,42.805,6.029,13.3004,4.60031,2470.171,2021-12-19T14:57:16Z
2021-12-19T12:58:50Z,42.805,6.029,13.3007,4.60033,2470.203,2021-12-19T15:00:19Z
2021-12-19T13:01:54Z,42.805,6.029,13.3005,4.60031,2470.203,2021-12-19T15:03:22Z
2021-12-19T13:04:57Z,42.805,6.029,13.3006,4.60029,2470.194,2021-12-19T15:06:25Z
2021-12-19T13:08:00Z,42.805,6.029,13.3010,4.60024,2470.203,2021-12-19T15:09:29Z
2021-12-19T13:11:03Z,42.805,6.029,13.3005,4.60035,2470.18,2021-12-19T15:12:32Z
2021-12-19T13:14:06Z,42.805,6.029,13.3002,4.60026,2470.194,2021-12-19T15:15:35Z
2021-12-19T13:17:09Z,42.805,6.029,13.3009,4.60035,2470.194,2021-12-19T15:18:38Z
2021-12-19T13:20:12Z,42.805,6.029,13.3006,4.60049,2470.18,2021-12-19T15:21:41Z
2021-12-19T13:23:15Z,42.805,6.029,13.3004,4.60026,2470.133,2021-12-19T15:24:44Z
2021-12-19T13:26:19Z,42.805,6.029,13.3013,4.60028,2470.156,2021-12-19T15:27:47Z
2021-12-19T13:29:22Z,42.805,6.029,13.3001,4.60029,2470.133,2021-12-19T15:30:51Z
2021-12-19T13:32:25Z,42.805,6.029,13.3003,4.60033,2470.171,2021-12-19T15:33:54Z
2021-12-19T13:35:28Z,42.805,6.029,13.3004,4.60028,2470.194,2021-12-19T15:36:57Z
2021-12-19T13:38:31Z,42.805,6.029,13.3003,4.60027,2470.18,2021-12-19T15:40:00Z
2021-12-19T13:41:34Z,42.805,6.029,13.3003,4.60026,2470.171,2021-12-19T15:43:03Z
2021-12-19T13:44:37Z,42.805,6.029,13.3009,4.60024,2470.171,2021-12-19T15:46:06Z
2021-12-19T13:47:40Z,42.805,6.029,13.2998,4.60026,2470.156,2021-12-19T15:49:09Z
2021-12-19T13:50:44Z,42.805,6.029,13.3006,4.60031,2470.18,2021-12-19T15:52:12Z
2021-12-19T13:53:47Z,42.805,6.029,13.3006,4.60031,2470.156,2021-12-19T15:55:16Z
2021-12-19T13:56:50Z,42.805,6.029,13.3009,4.60023,2470.18,2021-12-19T15:58:19Z
2021-12-19T13:59:53Z,42.805,6.029,13.3011,4.60026,2470.156,2021-12-19T16:01:22Z
2021-12-19T14:02:56Z,42.805,6.029,13.3005,4.60025,2470.156,2021-12-19T16:04:25Z
2021-12-19T14:05:59Z,42.805,6.029,13.3008,4.60029,2470.203,2021-12-19T16:07:28Z
2021-12-19T14:09:02Z,42.805,6.029,13.3011,4.60027,2470.194,2021-12-19T16:10:31Z
2021-12-19T14:12:05Z,42.805,6.029,13.3007,4.60029,2470.156,2021-12-19T16:13:34Z
2021-12-19T14:15:09Z,42.805,6.029,13.3001,4.60033,2470.119,2021-12-19T16:16:37Z
2021-12-19T14:18:12Z,42.805,6.029,13.3003,4.60027,2470.156,2021-12-19T16:19:41Z
2021-12-19T14:21:15Z,42.805,6.029,13.3006,4.60033,2470.171,2021-12-19T16:22:44Z
2021-12-19T14:24:18Z,42.805,6.029,13.3009,4.60024,2470.194,2021-12-19T16:25:47Z
2021-12-19T14:27:21Z,42.805,6.029,13.3006,4.60034,2470.18,2021-12-19T16:28:50Z
2021-12-19T14:30:24Z,42.805,6.029,13.3007,4.60028,2470.147,2021-12-19T16:31:53Z
2021-12-19T14:33:27Z,42.805,6.029,13.3006,4.60029,2470.156,2021-12-19T16:34:56Z
2021-12-19T14:36:31Z,42.805,6.029,13.3015,4.60031,2470.156,2021-12-19T16:37:59Z
2021-12-19T14:39:34Z,42.805,6.029,13.3001,4.60027,2470.133,2021-12-19T16:41:02Z
2021-12-19T14:42:37Z,42.805,6.029,13.3007,4.60033,2470.194,2021-12-19T16:44:06Z
2021-12-19T14:45:40Z,42.805,6.029,13.3004,4.60035,2470.156,2021-12-19T16:47:09Z
2021-12-19T14:48:43Z,42.805,6.029,13.3007,4.60032,2470.133,2021-12-19T16:50:12Z
2021-12-19T14:51:46Z,42.805,6.029,13.3003,4.60025,2470.194,2021-12-19T16:53:15Z
2021-12-19T14:54:49Z,42.805,6.029,13.3004,4.60027,2470.156,2021-12-19T16:56:18Z
2021-12-19T14:57:52Z,42.805,6.029,13.3006,4.60030,2470.18,2021-12-19T16:59:21Z
2021-12-19T15:00:56Z,42.805,6.029,13.3002,4.60028,2470.194,2021-12-19T17:02:24Z